Location: Shell Point
(30.0571°N, 84.2896°W)
Time: 15:39:19
(UTC-05:00)

Daily predictions for brighter satellites

Satellite Brightness Start Highest point End
(mag) Time Altitude Azimuth Time Altitude Azimuth Time Altitude Azimuth
Cosmos 2266 Rocket 4.2 17:55:41 10° N 18:01:34 48° E 18:07:33 10° SSE
Delta 2 Rocket 4.1 17:56:34 10° WNW 18:02:20 85° NNE 18:07:41 10° ESE
USA 238 DEB 3.8 17:55:15 10° NNW 18:02:22 66° ENE 18:09:30 10° SE
USA 238 3.8 17:55:22 10° NNW 18:02:28 65° ENE 18:09:36 10° SE
IRAS Rocket 4.2 17:58:04 10° SSE 18:03:30 70° ENE 18:08:57 10° N
Cosmos 1544 Rocket 3.7 17:59:38 10° N 18:03:58 80° W 18:08:16 10° S
YAOGAN 1 3.5 18:01:24 10° SE 18:05:04 28° ENE 18:08:45 10° NNE
Hubble Space Telescope 2.2 18:02:09 10° W 18:06:00 38° SSW 18:09:51 10° SE
Cosmos 1125 Rocket 4.2 18:00:54 10° SSW 18:06:06 57° WNW 18:11:19 10° N
Cosmos 1743 4.0 18:08:05 10° NNW 18:11:49 46° W 18:15:32 10° SSW
Cosmos 1269 Rocket 4.3 18:09:31 10° N 18:14:36 45° ENE 18:19:38 10° SE
ERS-2 3.7 18:13:16 10° ESE 18:15:34 16° ENE 18:17:53 10° NNE
EO 1 Del DPAF 4.1 18:12:34 10° NE 18:15:57 30° E 18:19:19 10° SSE
MTI 4.2 18:13:41 10° NNE 18:16:47 41° E 18:19:51 10° S
Cosmos 1048 Rocket 4.0 18:14:46 10° N 18:20:07 66° ENE 18:25:24 10° SSE
SJ 16-02 3.0 18:16:32 10° SW 18:20:32 35° WNW 18:24:35 10° N
Cosmos 2082 3.6 18:18:22 10° NNW 18:23:59 77° ENE 18:29:37 10° SSE
CORIOLIS 4.1 18:18:38 10° SSE 18:24:02 82° ENE 18:29:28 10° N
CZ-4 R/B 1.2 18:20:27 10° SSE 18:24:17 73° ENE 18:28:12 10° N
Meteor 1-15 Rocket 4.5 18:21:39 10° N 18:27:25 53° E 18:33:05 10° SSE
Landsat 4 3.6 18:23:41 10° NNE 18:27:30 75° ESE 18:31:17 10° S
COSMO-SKYMED 1 2.6 18:24:05 10° NNE 18:28:23 63° ESE 18:32:39 10° S
NOSS 3-2 (A) 4.1 18:22:19 10° NNW 18:29:59 59° ENE 18:38:09 10° SE
GOES 2 Rocket 3.4 18:29:51 10° W 18:33:59 61° S 18:38:47 10° ESE
Cosmos 2227 Rocket 2.7 18:28:30 10° NNW 18:34:06 65° WSW 18:39:40 10° S
Meteor 2-11 Rocket 4.4 18:28:45 10° S 18:34:50 71° E 18:40:58 10° N
NOSS 3-2 (C) 4.2 18:31:26 10° NNW 18:38:59 52° ENE 18:47:02 10° SE
ATLAS 3B R/B 3.0 18:33:24 10° NW 18:39:56 68° WSW 18:46:23 10° SSE
Cosmos 1025 Rocket 3.0 18:36:59 10° S 18:41:17 87° W 18:45:34 10° N
Cosmos 1980 Rocket 2.3 18:37:48 10° SSW 18:43:27 80° WNW 18:49:10 10° NNE
USA 215 3.3 18:40:29 10° ESE 18:46:54 62° NE 18:53:20 10° NNW
Okean 2 3.6 18:42:55 10° SSW 18:46:59 71° W 18:51:04 10° N
ISS -1.3 18:45:31 10° WNW 18:48:15 24° SW 18:50:59 10° S
Cosmos 1066 Rocket 4.3 18:44:04 10° S 18:49:27 53° E 18:54:44 10° NNE
Cosmos 1553 Rocket 4.2 18:45:56 10° SSE 18:52:03 50° E 18:58:11 10° NNE
Shenzhou-11 Module 2.0 18:51:38 10° WSW 18:54:38 73° NNW 18:55:30 41° NE
Cosmos 1417 Rocket 4.4 18:49:33 10° S 18:55:35 63° E 19:01:42 10° NNE
Okean 1-7 Rocket 3.6 18:51:28 10° S 18:55:51 81° W 19:00:16 10° N
GPS 2-04 Rocket1 3.4 18:54:10 10° SW 18:57:17 33° SSE 18:58:11 28° ESE
Cosmos 2297 Rocket 3.4 18:54:54 10° NW 19:00:14 44° WSW 19:05:32 10° S
NOAA 12 4.0 18:55:31 10° SSE 19:00:42 61° ENE 19:05:52 10° N
DELTA 2 R/B (1) 4.1 18:55:29 10° NW 19:00:45 41° NNE 19:02:55 29° ENE
MOS 1 4.3 19:00:35 10° SSE 19:06:16 89° WSW 19:11:58 10° NNW
NOSS 2-2 (D) 4.2 19:04:02 10° SW 19:07:46 46° WNW 19:10:21 19° N
Cosmos 1745 Rocket 4.3 19:06:26 10° NNE 19:12:14 40° E 19:18:04 10° SSE
Tiangong 2 2.0 19:13:19 10° SW 19:15:48 38° S 19:15:48 38° S
Cosmos 2344 3.6 19:10:25 10° SSW 19:18:06 59° ESE 19:22:05 29° NE
CENTAUR R/B 3.5 19:11:12 10° NNW 19:18:46 41° NE 19:22:17 29° E
DNEPR-1 R/B 4.4 19:13:30 10° NNW 19:18:58 57° ENE 19:25:37 10° SE
Cosmos 1606 Rocket 3.3 19:15:54 10° N 19:20:13 77° E 19:24:31 10° S
SWIFT 4.1 19:17:05 10° SW 19:20:21 22° S 19:21:35 19° SSE
FENGYUN 3A 3.7 19:17:00 10° S 19:22:22 78° WSW 19:27:44 10° NNW
Cosmos 2227 4.3 19:17:30 10° N 19:23:01 48° ENE 19:24:25 40° ESE
Lacrosse 5 rocket 1.5 19:20:26 10° SW 19:24:30 69° NW 19:25:21 52° N
Atlas Centaur 2 3.6 19:20:48 10° W 19:25:17 27° SSW 19:28:23 13° SSE
SL-16 R/B 2.1 19:21:55 10° SSW 19:27:33 77° ESE 19:29:37 41° NNE
IUS-26 SRM-1 3.8 19:24:19 10° WSW 19:28:32 29° S 19:28:32 29° S
ALOS 2.9 19:24:22 10° S 19:28:56 56° W 19:33:31 10° NNW
Cosmos 2322 Rocket 2.0 19:25:36 10° SSW 19:31:11 81° ESE 19:32:59 45° NNE
SPOT 3 Rocket 4.2 19:30:07 10° S 19:35:11 56° W 19:40:16 10° NNW
Cosmos 1238 Rocket 3.8 19:30:06 10° SSE 19:34:39 51° ESE 19:34:39 51° ESE
Gblst 52 Del rocket 4.3 19:36:14 10° NW 19:42:03 67° NE 19:42:42 63° E
Skynet4D Del rocket 4.3 19:37:08 10° W 19:43:02 49° SSW 19:44:26 40° SSE
Cosmos 1726 Rocket 3.8 19:42:02 46° NNW 19:43:09 67° W 19:47:25 10° S
Hubble Space Telescope 3.5 19:44:52 10° SW 19:46:46 13° SSW 19:48:33 10° S
Thor Agena Rocket 3.8 19:49:31 44° N 19:51:06 68° WNW 19:56:20 10° SSW
Cosmos 2251 Rocket 3.6 19:46:56 10° NNW 19:52:11 73° WSW 19:57:22 10° S
Cosmos 839 Rocket 4.1 19:52:17 10° SSW 19:57:48 63° SE 19:57:48 63° SE
BREEZE-M R/B 4.0 20:17:54 10° WSW 20:20:22 46° W 20:20:22 46° W
Cosmos 2360 Rocket 3.8 20:20:04 10° SSW 20:22:29 27° SSW 20:22:29 27° SSW
CENTAUR R/B 4.1 21:01:55 10° NW 21:09:32 42° WSW 21:09:42 42° WSW
